sat.trackr.live / text

‹ back to catalog

STARLINK-30854

NORAD 58244 · 2023-171Q

PAYLOAD ACTIVE UNKNOWN

§ Identity

Operator
Country
US
Launch date
2023-11-08
Launch site
AFETR
Launch vehicle
Mass (kg)
RCS (m²)

Purposes: comms

External: N2YO · Heavens-Above · Gunter

§ Orbital elements

Epoch: 2026-09-20T20:53:33.184608Z

Period
94.27 min
Inclination
43.0028°
Eccentricity
0.0001432
Mean motion
15.27576034 rev/d
Perigee alt
482.1 km
Apogee alt
484.0 km
Semi-major
6,861.2 km
B*
4.6754e-5
RAAN
263.0586°
Arg perigee
259.1652°
Mean anomaly
100.9038°
Rev number
15,958

§ Raw data

STARLINK-308541 58244U 23171Q   26263.87052297  .00001024  00000+0  46754-4 0  99922 58244  43.0028 263.0586 0001432 259.1652 100.9038 15.27576034159581

JSON: /api/v1/satellites/58244 · /tle

For live sub-satellite position, see the globe view (requires WebGL).

§ Visibility from observer

Set your observer location to see the next 7 days of passes ≥ 10°. The values pass through the URL so the page stays shareable.

No JS? Fill the form by hand. The geolocation button needs JavaScript.